| time (UTC) | temp C | wind direction | speed KPH | gust KPH | rain 1hr cm | rain 24hr cm | rain mn cm | humidity % | barometer mb |
| 20260508170021 | 20 | 171 | 0.0 | 0.0 | 0.00 | 0.03 | 0.03 | 40 | 1016.2 |
| 20260508164516 | 20 | 296 | 0.0 | 0.0 | 0.00 | 0.03 | 0.03 | 44 | 1016.4 |
| 20260508163012 | 19 | 83 | 0.0 | 0.0 | 0.00 | 0.03 | 0.03 | 42 | 1016.6 |
| 20260508161507 | 18 | 170 | 0.0 | 0.0 | 0.00 | 0.03 | 0.03 | 48 | 1016.8 |
| 20260508160009 | 18 | 126 | 0.0 | 0.0 | 0.00 | 0.03 | 0.03 | 50 | 1017.1 |
| 20260508154559 | 18 | 219 | 0.0 | 0.0 | 0.00 | 0.03 | 0.03 | 48 | 1017.3 |
| 20260508153054 | 18 | 136 | 0.0 | 0.0 | 0.00 | 0.03 | 0.03 | 48 | 1017.5 |
| 20260508151553 | 17 | 267 | 0.0 | 0.0 | 0.00 | 0.03 | 0.03 | 49 | 1017.7 |
| 20260508150045 | 17 | 192 | 0.0 | 0.0 | 0.00 | 0.03 | 0.03 | 48 | 1017.6 |
| 20260508144540 | 17 | 181 | 0.0 | 0.0 | 0.00 | 0.03 | 0.03 | 51 | 1017.8 |
| 20260508143043 | 16 | 119 | 0.0 | 0.0 | 0.00 | 0.03 | 0.03 | 53 | 1017.9 |
| 20260508141542 | 15 | 155 | 0.0 | 0.0 | 0.00 | 0.03 | 0.03 | 57 | 1018.2 |
| 20260508140027 | 15 | 247 | 0.0 | 0.0 | 0.00 | 0.03 | 0.03 | 63 | 1018.1 |
| 20260508134530 | 13 | 113 | 0.0 | 0.0 | 0.00 | 0.03 | 0.03 | 63 | 1018.1 |
| 20260508133019 | 12 | 114 | 0.0 | 0.0 | 0.00 | 0.03 | 0.03 | 45 | 1018.2 |
| 20260508131514 | 10 | 114 | 0.0 | 0.0 | 0.00 | 0.03 | 0.03 | 20 | 1018.1 |
| 20260508130010 | 8 | 140 | 0.0 | 0.0 | 0.00 | 0.03 | 0.03 | 1 | 1018.1 |
| 20260508124509 | 7 | 140 | 0.0 | 0.0 | 0.00 | 0.03 | 0.03 | 1 | 1018.1 |
| 20260508123101 | 6 | 140 | 0.0 | 0.0 | 0.00 | 0.03 | 0.03 | 1 | 1018.1 |
| 20260508121607 | 5 | 140 | 0.0 | 0.0 | 0.00 | 0.03 | 0.03 | 1 | 1017.9 |
| 20260508120052 | 3 | 140 | 0.0 | 0.0 | 0.00 | 0.03 | 0.03 | 1 | 1017.8 |
| 20260508114547 | 2 | 140 | 0.0 | 0.0 | 0.00 | 0.03 | 0.03 | 1 | 1017.7 |
| 20260508113043 | 1 | 140 | 0.0 | 0.0 | 0.00 | 0.03 | 0.03 | 1 | 1017.7 |
| 20260508111539 | 1 | 140 | 0.0 | 0.0 | 0.00 | 0.03 | 0.03 | 1 | 1017.3 |
| 20260508110047 | 1 | 140 | 0.0 | 0.0 | 0.00 | 0.03 | 0.03 | 1 | 1017.2 |
| 20260508104532 | 1 | 140 | 0.0 | 0.0 | 0.00 | 0.03 | 0.03 | 1 | 1017.1 |
| 20260508103031 | 1 | 140 | 0.0 | 0.0 | 0.00 | 0.03 | 0.03 | 1 | 1016.9 |
| 20260508101524 | 1 | 140 | 0.0 | 0.0 | 0.00 | 0.03 | 0.03 | 1 | 1016.7 |
| 20260508100021 | 1 | 140 | 0.0 | 0.0 | 0.00 | 0.03 | 0.03 | 1 | 1016.8 |
| 20260508094515 | 1 | 140 | 0.0 | 0.0 | 0.00 | 0.03 | 0.03 | 1 | 1016.9 |
| 20260508093017 | 1 | 116 | 0.0 | 0.0 | 0.00 | 0.03 | 0.03 | 1 | 1016.9 |
| 20260508091512 | 1 | 116 | 0.0 | 0.0 | 0.00 | 0.03 | 0.03 | 1 | 1016.9 |
| 20260508090004 | 1 | 117 | 0.0 | 0.0 | 0.00 | 0.03 | 0.03 | 1 | 1016.9 |
| 20260508084558 | 1 | 116 | 0.0 | 0.0 | 0.00 | 0.03 | 0.03 | 1 | 1016.9 |
| 20260508083131 | 1 | 116 | 0.0 | 0.0 | 0.00 | 0.03 | 0.03 | 1 | 1016.9 |
| 20260508081554 | 1 | 116 | 0.0 | 0.0 | 0.00 | 0.03 | 0.03 | 1 | 1016.9 |
| 20260508080055 | 1 | 116 | 0.0 | 0.0 | 0.00 | 0.03 | 0.03 | 1 | 1016.8 |
| 20260508074540 | 2 | 116 | 0.0 | 0.0 | 0.03 | 0.03 | 0.03 | 1 | 1016.7 |
| 20260508073038 | 2 | 117 | 0.0 | 0.0 | 0.03 | 0.03 | 0.03 | 1 | 1016.7 |
| 20260508071534 | 2 | 116 | 0.0 | 0.0 | 0.03 | 0.03 | 0.03 | 1 | 1016.8 |
| 20260508070027 | 2 | 116 | 0.0 | 0.0 | 0.00 | 0.00 | 0.00 | 1 | 1016.8 |
| 20260508064540 | 2 | 116 | 0.0 | 0.0 | 0.00 | 0.00 | 0.00 | 1 | 1016.9 |
| 20260508063018 | 3 | 116 | 0.0 | 0.0 | 0.00 | 0.00 | 0.00 | 1 | 1016.9 |
| 20260508061517 | 3 | 117 | 0.0 | 0.0 | 0.00 | 0.00 | 0.00 | 1 | 1017.0 |
| 20260508060010 | 3 | 117 | 0.0 | 0.0 | 0.00 | 0.00 | 0.00 | 1 | 1017.0 |
| 20260508054505 | 3 | 321 | 0.0 | 0.0 | 0.00 | 0.00 | 0.00 | 1 | 1017.1 |
| 20260508053106 | 3 | 321 | 0.0 | 0.0 | 0.00 | 0.00 | 0.00 | 1 | 1017.0 |
| 20260508051557 | 3 | 321 | 0.0 | 0.0 | 0.00 | 0.00 | 0.00 | 1 | 1017.1 |
| 20260508050056 | 3 | 321 | 0.0 | 0.0 | 0.00 | 0.00 | 0.00 | 1 | 1017.2 |
| 20260508044548 | 4 | 321 | 0.0 | 0.0 | 0.00 | 0.00 | 0.00 | 1 | 1017.1 |
| 20260508043044 | 4 | 321 | 0.0 | 0.0 | 0.00 | 0.00 | 0.00 | 1 | 1017.0 |
| 20260508041540 | 5 | 321 | 0.0 | 0.0 | 0.00 | 0.00 | 0.00 | 1 | 1016.7 |
| 20260508040037 | 5 | 321 | 0.0 | 0.0 | 0.00 | 0.00 | 0.00 | 1 | 1016.6 |
| 20260508034531 | 5 | 321 | 0.0 | 0.0 | 0.00 | 0.00 | 0.00 | 1 | 1016.4 |
| 20260508033025 | 5 | 321 | 0.0 | 0.0 | 0.00 | 0.00 | 0.00 | 12 | 1016.5 |
| 20260508031521 | 6 | 321 | 0.0 | 0.0 | 0.00 | 0.00 | 0.00 | 12 | 1016.5 |
| 20260508030017 | 6 | 321 | 0.0 | 0.0 | 0.00 | 0.00 | 0.00 | 14 | 1016.5 |
| 20260508024522 | 6 | 321 | 0.0 | 0.0 | 0.00 | 0.00 | 0.00 | 28 | 1016.5 |
| 20260508023008 | 7 | 321 | 0.0 | 0.0 | 0.00 | 0.00 | 0.00 | 38 | 1016.2 |
| 20260508021502 | 7 | 321 | 0.0 | 0.0 | 0.00 | 0.00 | 0.00 | 46 | 1016.1 |
| 20260508020059 | 8 | 321 | 0.0 | 0.0 | 0.00 | 0.00 | 0.00 | 58 | 1015.9 |
| 20260508014555 | 8 | 321 | 0.0 | 0.0 | 0.00 | 0.00 | 0.00 | 61 | 1015.5 |
| 20260508013050 | 10 | 321 | 0.0 | 0.0 | 0.00 | 0.00 | 0.00 | 64 | 1015.3 |
| 20260508011558 | 10 | 321 | 0.0 | 0.0 | 0.00 | 0.00 | 0.00 | 67 | 1015.1 |
| 20260508010052 | 11 | 321 | 0.0 | 0.0 | 0.00 | 0.00 | 0.00 | 68 | 1014.9 |
| 20260508004551 | 12 | 321 | 0.0 | 0.0 | 0.00 | 0.03 | 0.00 | 69 | 1014.7 |
| 20260508003037 | 13 | 321 | 0.0 | 0.0 | 0.00 | 0.03 | 0.00 | 64 | 1014.6 |
| 20260508001528 | 15 | 321 | 0.0 | 0.0 | 0.00 | 0.03 | 0.00 | 58 | 1014.4 |
| 20260508000023 | 16 | 311 | 0.0 | 0.0 | 0.00 | 0.03 | 0.00 | 51 | 1014.2 |
| 20260507234520 | 17 | 327 | 0.0 | 0.0 | 0.00 | 0.08 | 0.00 | 41 | 1014.1 |
| 20260507233014 | 17 | 313 | 0.0 | 0.0 | 0.00 | 0.08 | 0.00 | 42 | 1014.2 |
| 20260507231509 | 17 | 338 | 0.0 | 0.0 | 0.00 | 0.08 | 0.00 | 42 | 1014.1 |
| 20260507230006 | 17 | 279 | 0.0 | 0.0 | 0.00 | 0.08 | 0.00 | 43 | 1014.1 |
| 20260507224504 | 17 | 323 | 0.0 | 0.0 | 0.00 | 0.10 | 0.00 | 42 | 1014.2 |
| 20260507223057 | 17 | 312 | 0.0 | 0.0 | 0.00 | 0.10 | 0.00 | 41 | 1014.2 |
| 20260507221552 | 18 | 324 | 0.0 | 0.0 | 0.00 | 0.10 | 0.00 | 41 | 1014.3 |
| 20260507220048 | 18 | 302 | 0.0 | 0.0 | 0.00 | 0.10 | 0.00 | 39 | 1014.1 |
| 20260507214543 | 17 | 242 | 0.0 | 0.0 | 0.00 | 0.15 | 0.00 | 41 | 1014.2 |
| 20260507213039 | 18 | 15 | 0.0 | 0.0 | 0.00 | 0.15 | 0.00 | 41 | 1013.9 |
| 20260507211535 | 18 | 300 | 0.0 | 0.0 | 0.00 | 0.15 | 0.00 | 42 | 1013.8 |
| 20260507210030 | 17 | 312 | 0.0 | 0.0 | 0.00 | 0.15 | 0.00 | 42 | 1013.9 |
| 20260507204526 | 17 | 332 | 0.0 | 0.0 | 0.00 | 0.18 | 0.00 | 40 | 1014.0 |
| 20260507203020 | 17 | 308 | 0.0 | 0.0 | 0.00 | 0.18 | 0.00 | 40 | 1013.7 |
| 20260507201516 | 17 | 273 | 0.0 | 0.0 | 0.00 | 0.18 | 0.00 | 42 | 1013.9 |
| 20260507200022 | 18 | 344 | 0.0 | 0.0 | 0.00 | 0.18 | 0.00 | 41 | 1014.0 |
| 20260507194507 | 17 | 336 | 0.0 | 0.0 | 0.00 | 0.18 | 0.00 | 41 | 1014.2 |
| 20260507193006 | 17 | 9 | 0.0 | 0.0 | 0.00 | 0.18 | 0.00 | 43 | 1014.3 |
| 20260507191601 | 17 | 331 | 0.0 | 0.0 | 0.00 | 0.18 | 0.00 | 42 | 1014.3 |
| 20260507191501 | 17 | 348 | 0.0 | 0.0 | 0.00 | 0.18 | 0.00 | 42 | 1014.3 |
| 20260507184551 | 17 | 355 | 0.0 | 0.0 | 0.00 | 0.18 | 0.00 | 41 | 1014.4 |
| 20260507183050 | 17 | 333 | 0.0 | 0.0 | 0.00 | 0.18 | 0.00 | 49 | 1014.3 |
| 20260507181542 | 17 | 303 | 0.0 | 0.0 | 0.00 | 0.18 | 0.00 | 46 | 1014.5 |
| 20260507180042 | 17 | 52 | 0.0 | 0.0 | 0.00 | 0.18 | 0.00 | 46 | 1014.5 |
| 20260507174538 | 16 | 337 | 0.0 | 0.0 | 0.00 | 0.18 | 0.00 | 47 | 1014.7 |
| 20260507173033 | 16 | 252 | 0.0 | 0.0 | 0.00 | 0.18 | 0.00 | 49 | 1015.0 |
| 20260507171525 | 17 | 288 | 0.0 | 0.0 | 0.00 | 0.18 | 0.00 | 47 | 1015.1 |